Location: Zagreb
(45.8000°N, 16.0000°E)
Time: 00:09:27
(UTC+02:00)

Envisat - Pass Details

Date: 30 April 2024
Orbit: 762 x 764 km, 98.3° (Epoch: 27 May)

Event Time Altitude Azimuth Distance (km) Brightness Sun altitude
Rises 04:39:15 0° 11° (N) 3,239 7.0 -10.8°
Reaches altitude 10° 04:41:35 10° 9° (N) 2,308 6.1 -10.5°
Maximum altitude 04:46:37 67° 288° (WNW) 826 3.0 -9.7°
Drops below altitude 10° 04:51:37 10° 206° (SSW) 2,291 5.0 -9.0°
Enters shadow 04:52:30 - 205° (SSW) 2,638 5.3 -8.9°
